星链-35034 (STARLINK-35034)

导读 | 豆包AI

STARLINK-35034是美国SpaceX公司星链星座的一员,于2025年8月31日发射入轨。作为低轨宽带通信卫星,它采用平板设计搭配单块太阳电池阵,以氪工质霍尔推进器实现轨道维持与离轨,具备自主避撞能力。它依托Ku/Ka波段通信与光学星间链路,旨在为全球偏远欠发达地区提供高速低延迟宽带互联网服务,设计寿命约5至7年,退役后会坠入大气层烧毁。

Basic Information
目录编号:
65431
目录名称:
STARLINK-35034
国际标识:
2025-192AD
轨道中心:
EARTH
卫星名称:
星链-35034
卫星全名:
星链-35034 (STARLINK-35034)
卫星状态:
在轨 (已飞行241 天)
发射日期:
2025-08-31 UTC
国别 :
美国 (US)
星等 :
--
Orbit Information
数据来源 国际轨道数据 AOE轨道数据
星历时间 2026-04-29T06:18:17+0800
11小时前
查看轨道信息
2026-04-22T20:00:00+0800
6天前
查看轨道信息
半长轴 6853.302km 6853.385km
偏心率 0.0001296 0.0001186
轨道倾角 53.163° 53.161°
近地点辐角 84.766° 82.758°
升交点赤经 359.161° 29.024°
平近点角 275.349° 120.134°
近地点 474.276km 474.435km
远地点 476.054km 476.061km
周期 94.104分钟 94.106分钟
每日圈数 15.302171 15.30189
Detailed Information
固有亮度:
5
最大亮度:
2.5
卫星平台:
Starlink V1.0
覆盖范围:
全球
运营商:
太空探索技术公司
运营商所在国:
美国
制造商(研发单位):
太空探索技术公司
制造商所在国:
美国
使用方式:
暂无
Satellite Introduction
Starlink 计划是 SpaceX 推出的全球卫星互联网项目,通过发射低轨道卫星,为全球尤其是偏远地区提供高速、低延迟的互联网服务。自 2019 年起,Starlink 已部署数千颗卫星,旨在缩小全球数字鸿沟,推动互联网普及。该项目还为军事、航空等行业提供通信支持,带来广泛经济效益。
2D Orbit Map
3D Orbit Map
Orbit Altitude Analysis Chart
Orbit Inclination Analysis Chart
Orbit Comprehensive Analysis Chart
View Comprehensive Chart